Time,TemperatureF,DewpointF,PressureIn,WindDirection,WindDirectionDegrees,WindSpeedMPH,WindSpeedGustMPH,Humidity,HourlyPrecipIn,Conditions,Clouds,dailyrainin,SolarRadiationWatts/m^2,SoftwareType,DateUTC
2013-03-23 00:02:00,43.5,31.3,30.07,North,360,0.0,0.0,62,0.00,,,0.00,0,Wunderground v.1.15,2013-03-23 07:02:00,
2013-03-23 00:07:00,44.1,31.1,30.08,North,360,0.0,0.0,60,0.00,,,0.00,0,Wunderground v.1.15,2013-03-23 07:07:00,
2013-03-23 00:17:00,43.7,31.5,30.08,North,360,0.0,0.0,62,0.00,,,0.00,0,Wunderground v.1.15,2013-03-23 07:17:00,
2013-03-23 00:22:00,42.3,31.7,30.08,North,360,0.0,0.0,66,0.00,,,0.00,0,Wunderground v.1.15,2013-03-23 07:22:00,
2013-03-23 00:27:00,41.3,31.2,30.08,North,360,0.0,0.0,67,0.00,,,0.00,0,Wunderground v.1.15,2013-03-23 07:27:00,
2013-03-23 00:37:00,41.8,31.3,30.08,North,360,0.0,0.0,66,0.00,,,0.00,0,Wunderground v.1.15,2013-03-23 07:37:00,
2013-03-23 00:42:00,41.8,31.6,30.08,North,360,0.0,0.0,67,0.00,,,0.00,0,Wunderground v.1.15,2013-03-23 07:42:00,
2013-03-23 00:52:00,41.0,31.2,30.08,East,98,0.0,0.0,68,0.00,,,0.00,0,Wunderground v.1.15,2013-03-23 07:52:00,
2013-03-23 01:02:00,40.3,30.6,30.08,East,81,0.0,0.0,68,0.00,,,0.00,0,Wunderground v.1.15,2013-03-23 08:02:00,
2013-03-23 01:12:00,42.6,31.7,30.07,ESE,115,0.0,0.0,65,0.00,,,0.00,0,Wunderground v.1.15,2013-03-23 08:12:00,
2013-03-23 01:22:00,43.2,31.8,30.07,NNW,348,0.0,0.0,64,0.00,,,0.00,0,Wunderground v.1.15,2013-03-23 08:22:00,
2013-03-23 01:27:00,43.6,31.8,30.08,North,9,0.0,1.0,63,0.00,,,0.00,0,Wunderground v.1.15,2013-03-23 08:27:00,
2013-03-23 01:37:00,46.2,32.2,30.07,North,360,1.0,1.0,58,0.00,,,0.00,0,Wunderground v.1.15,2013-03-23 08:37:00,
2013-03-23 01:47:00,48.0,30.7,30.07,North,355,0.0,0.0,51,0.00,,,0.00,0,Wunderground v.1.15,2013-03-23 08:47:00,
2013-03-23 01:52:00,48.5,29.7,30.07,North,5,1.0,1.0,48,0.00,,,0.00,0,Wunderground v.1.15,2013-03-23 08:52:00,
2013-03-23 02:02:00,48.4,29.1,30.07,ENE,67,0.0,0.0,47,0.00,,,0.00,0,Wunderground v.1.15,2013-03-23 09:02:00,
2013-03-23 02:07:00,48.3,30.0,30.07,NNW,336,0.0,0.0,49,0.00,,,0.00,0,Wunderground v.1.15,2013-03-23 09:07:00,
2013-03-23 02:12:00,47.4,30.2,30.06,North,355,0.0,2.0,51,0.00,,,0.00,0,Wunderground v.1.15,2013-03-23 09:12:00,
2013-03-23 02:17:00,47.2,30.5,30.06,NNE,26,0.0,2.0,52,0.00,,,0.00,0,Wunderground v.1.15,2013-03-23 09:17:00,
2013-03-23 02:27:00,47.2,32.3,30.07,NE,51,0.0,0.0,56,0.00,,,0.00,0,Wunderground v.1.15,2013-03-23 09:27:00,
2013-03-23 02:32:00,47.2,31.4,30.06,SE,126,0.0,0.0,54,0.00,,,0.00,0,Wunderground v.1.15,2013-03-23 09:32:00,
2013-03-23 02:37:00,46.7,32.3,30.06,SE,126,0.0,0.0,57,0.00,,,0.00,0,Wunderground v.1.15,2013-03-23 09:37:00,
2013-03-23 02:42:00,45.3,31.4,30.06,SE,126,0.0,0.0,58,0.00,,,0.00,0,Wunderground v.1.15,2013-03-23 09:42:00,
2013-03-23 02:47:00,44.3,30.9,30.06,SE,126,0.0,0.0,59,0.00,,,0.00,0,Wunderground v.1.15,2013-03-23 09:47:00,
2013-03-23 02:52:00,43.7,30.3,30.06,SE,125,0.0,0.0,59,0.00,,,0.00,0,Wunderground v.1.15,2013-03-23 09:52:00,
2013-03-23 02:57:00,43.3,30.7,30.06,SE,126,0.0,0.0,61,0.00,,,0.00,0,Wunderground v.1.15,2013-03-23 09:57:00,
2013-03-23 03:07:00,43.3,29.9,30.06,ENE,64,0.0,0.0,59,0.00,,,0.00,0,Wunderground v.1.15,2013-03-23 10:07:00,
2013-03-23 03:12:00,43.7,29.5,30.06,ENE,64,0.0,0.0,57,0.00,,,0.00,0,Wunderground v.1.15,2013-03-23 10:12:00,
2013-03-23 03:17:00,43.6,30.6,30.06,South,187,0.0,0.0,60,0.00,,,0.00,0,Wunderground v.1.15,2013-03-23 10:17:00,
2013-03-23 03:22:00,42.6,31.3,30.07,South,187,0.0,0.0,64,0.00,,,0.00,0,Wunderground v.1.15,2013-03-23 10:22:00,
2013-03-23 03:27:00,41.2,30.7,30.07,South,187,0.0,0.0,66,0.00,,,0.00,0,Wunderground v.1.15,2013-03-23 10:27:00,
2013-03-23 03:37:00,39.2,29.9,30.06,South,187,0.0,0.0,69,0.00,,,0.00,0,Wunderground v.1.15,2013-03-23 10:37:00,
2013-03-23 03:42:00,38.6,29.7,30.06,South,187,0.0,0.0,70,0.00,,,0.00,0,Wunderground v.1.15,2013-03-23 10:42:00,
2013-03-23 03:52:00,37.3,29.1,30.07,South,187,0.0,0.0,72,0.00,,,0.00,0,Wunderground v.1.15,2013-03-23 10:52:00,
2013-03-23 03:57:00,36.8,28.6,30.07,South,187,0.0,0.0,72,0.00,,,0.00,0,Wunderground v.1.15,2013-03-23 10:57:00,
2013-03-23 04:02:00,36.5,28.7,30.07,South,187,0.0,0.0,73,0.00,,,0.00,0,Wunderground v.1.15,2013-03-23 11:02:00,
2013-03-23 04:07:00,36.5,28.7,30.06,South,187,0.0,0.0,73,0.00,,,0.00,0,Wunderground v.1.15,2013-03-23 11:07:00,
2013-03-23 04:17:00,35.7,28.2,30.07,South,187,0.0,0.0,74,0.00,,,0.00,0,Wunderground v.1.15,2013-03-23 11:17:00,
2013-03-23 04:22:00,35.4,27.9,30.07,South,187,0.0,0.0,74,0.00,,,0.00,0,Wunderground v.1.15,2013-03-23 11:22:00,
2013-03-23 04:32:00,34.5,27.7,30.07,South,187,0.0,0.0,76,0.00,,,0.00,0,Wunderground v.1.15,2013-03-23 11:32:00,
2013-03-23 04:42:00,34.9,28.1,30.07,South,187,0.0,0.0,76,0.00,,,0.00,0,Wunderground v.1.15,2013-03-23 11:42:00,
2013-03-23 04:47:00,34.8,28.0,30.07,South,187,0.0,0.0,76,0.00,,,0.00,0,Wunderground v.1.15,2013-03-23 11:47:00,
2013-03-23 04:52:00,34.4,27.9,30.07,South,187,0.0,0.0,77,0.00,,,0.00,0,Wunderground v.1.15,2013-03-23 11:52:00,
2013-03-23 04:57:00,34.2,27.7,30.07,South,187,0.0,0.0,77,0.00,,,0.00,0,Wunderground v.1.15,2013-03-23 11:57:00,
2013-03-23 05:02:00,33.8,27.7,30.08,South,187,0.0,0.0,78,0.00,,,0.00,0,Wunderground v.1.15,2013-03-23 12:02:00,
2013-03-23 05:07:00,33.5,27.4,30.08,South,187,0.0,0.0,78,0.00,,,0.00,0,Wunderground v.1.15,2013-03-23 12:07:00,
2013-03-23 05:12:00,33.5,27.7,30.08,South,187,0.0,0.0,79,0.00,,,0.00,0,Wunderground v.1.15,2013-03-23 12:12:00,
2013-03-23 05:17:00,33.2,27.1,30.08,South,187,0.0,0.0,78,0.00,,,0.00,0,Wunderground v.1.15,2013-03-23 12:17:00,
2013-03-23 05:27:00,33.0,27.2,30.08,South,187,0.0,0.0,79,0.00,,,0.00,0,Wunderground v.1.15,2013-03-23 12:27:00,
2013-03-23 05:32:00,32.9,27.1,30.08,South,187,0.0,0.0,79,0.00,,,0.00,0,Wunderground v.1.15,2013-03-23 12:32:00,
2013-03-23 05:37:00,32.9,27.1,30.08,South,187,0.0,0.0,79,0.00,,,0.00,0,Wunderground v.1.15,2013-03-23 12:37:00,
2013-03-23 05:47:00,32.8,27.0,30.08,South,187,0.0,0.0,79,0.00,,,0.00,0,Wunderground v.1.15,2013-03-23 12:47:00,
2013-03-23 05:52:00,32.6,26.5,30.08,South,187,0.0,0.0,78,0.00,,,0.00,0,Wunderground v.1.15,2013-03-23 12:52:00,
2013-03-23 06:02:00,32.4,26.6,30.08,South,187,0.0,0.0,79,0.00,,,0.00,0,Wunderground v.1.15,2013-03-23 13:02:00,
2013-03-23 06:07:00,32.3,26.5,30.09,South,187,0.0,0.0,79,0.00,,,0.00,0,Wunderground v.1.15,2013-03-23 13:07:00,
2013-03-23 06:17:00,32.6,26.5,30.09,South,187,0.0,0.0,78,0.00,,,0.00,0,Wunderground v.1.15,2013-03-23 13:17:00,
2013-03-23 06:22:00,32.3,26.5,30.09,South,187,0.0,0.0,79,0.00,,,0.00,0,Wunderground v.1.15,2013-03-23 13:22:00,
2013-03-23 06:27:00,32.2,26.4,30.09,South,187,0.0,0.0,79,0.00,,,0.00,0,Wunderground v.1.15,2013-03-23 13:27:00,
2013-03-23 06:32:00,32.4,26.9,30.10,South,187,0.0,0.0,80,0.00,,,0.00,0,Wunderground v.1.15,2013-03-23 13:32:00,
2013-03-23 06:37:00,32.9,26.8,30.10,South,187,0.0,0.0,78,0.00,,,0.00,0,Wunderground v.1.15,2013-03-23 13:37:00,
2013-03-23 06:42:00,32.8,27.0,30.10,South,187,0.0,0.0,79,0.00,,,0.00,0,Wunderground v.1.15,2013-03-23 13:42:00,
2013-03-23 06:47:00,32.6,26.8,30.10,South,180,0.0,0.0,79,0.00,,,0.00,0,Wunderground v.1.15,2013-03-23 13:47:00,
2013-03-23 06:52:00,32.4,26.6,30.10,South,180,0.0,0.0,79,0.00,,,0.00,0,Wunderground v.1.15,2013-03-23 13:52:00,
2013-03-23 07:02:00,32.5,26.1,30.11,South,180,0.0,0.0,77,0.00,,,0.00,0,Wunderground v.1.15,2013-03-23 14:02:00,
2013-03-23 07:07:00,32.7,26.0,30.11,South,180,0.0,0.0,76,0.00,,,0.00,5,Wunderground v.1.15,2013-03-23 14:07:00,
2013-03-23 07:12:00,32.5,26.4,30.11,South,180,0.0,0.0,78,0.00,,,0.00,7,Wunderground v.1.15,2013-03-23 14:12:00,
2013-03-23 07:22:00,33.0,26.6,30.10,South,180,0.0,0.0,77,0.00,,,0.00,11,Wunderground v.1.15,2013-03-23 14:22:00,
2013-03-23 07:27:00,33.2,27.1,30.10,South,180,0.0,0.0,78,0.00,,,0.00,12,Wunderground v.1.15,2013-03-23 14:27:00,
2013-03-23 07:32:00,33.4,27.3,30.10,South,180,0.0,0.0,78,0.00,,,0.00,14,Wunderground v.1.15,2013-03-23 14:32:00,
2013-03-23 07:37:00,34.2,26.4,30.10,South,180,0.0,0.0,73,0.00,,,0.00,16,Wunderground v.1.15,2013-03-23 14:37:00,
2013-03-23 07:42:00,34.9,26.8,30.11,South,180,0.0,0.0,72,0.00,,,0.00,18,Wunderground v.1.15,2013-03-23 14:42:00,
2013-03-23 07:47:00,34.7,26.9,30.10,South,180,0.0,0.0,73,0.00,,,0.00,19,Wunderground v.1.15,2013-03-23 14:47:00,
2013-03-23 07:57:00,35.7,27.2,30.10,South,180,0.0,0.0,71,0.00,,,0.00,25,Wunderground v.1.15,2013-03-23 14:57:00,
2013-03-23 08:02:00,36.4,27.9,30.11,South,180,0.0,0.0,71,0.00,,,0.00,26,Wunderground v.1.15,2013-03-23 15:02:00,
2013-03-23 08:07:00,36.8,28.3,30.11,South,180,0.0,0.0,71,0.00,,,0.00,28,Wunderground v.1.15,2013-03-23 15:07:00,
2013-03-23 08:12:00,36.4,29.2,30.10,South,180,0.0,0.0,75,0.00,,,0.00,30,Wunderground v.1.15,2013-03-23 15:12:00,
2013-03-23 08:22:00,37.4,29.9,30.11,South,180,0.0,0.0,74,0.00,,,0.00,104,Wunderground v.1.15,2013-03-23 15:22:00,
2013-03-23 08:32:00,41.4,31.6,30.11,South,180,0.0,0.0,68,0.00,,,0.00,237,Wunderground v.1.15,2013-03-23 15:32:00,
2013-03-23 08:37:00,42.9,31.9,30.12,South,180,0.0,0.0,65,0.00,,,0.00,255,Wunderground v.1.15,2013-03-23 15:37:00,
2013-03-23 08:47:00,44.3,32.5,30.13,South,180,0.0,0.0,63,0.00,,,0.00,290,Wunderground v.1.15,2013-03-23 15:47:00,
2013-03-23 08:57:00,45.0,33.9,30.13,South,180,0.0,0.0,65,0.00,,,0.00,323,Wunderground v.1.15,2013-03-23 15:57:00,
2013-03-23 09:02:00,45.3,33.4,30.13,West,259,0.0,0.0,63,0.00,,,0.00,297,Wunderground v.1.15,2013-03-23 16:02:00,
2013-03-23 09:12:00,46.2,34.3,30.14,West,259,0.0,0.0,63,0.00,,,0.00,311,Wunderground v.1.15,2013-03-23 16:12:00,
2013-03-23 09:17:00,46.5,34.6,30.13,SSW,198,0.0,0.0,63,0.00,,,0.00,394,Wunderground v.1.15,2013-03-23 16:17:00,
2013-03-23 09:22:00,46.8,34.0,30.14,SSW,198,0.0,0.0,61,0.00,,,0.00,410,Wunderground v.1.15,2013-03-23 16:22:00,
2013-03-23 09:27:00,47.3,34.9,30.14,SSW,200,0.0,0.0,62,0.00,,,0.00,425,Wunderground v.1.15,2013-03-23 16:27:00,
2013-03-23 09:32:00,48.0,35.6,30.14,SSW,200,0.0,0.0,62,0.00,,,0.00,330,Wunderground v.1.15,2013-03-23 16:32:00,
2013-03-23 09:37:00,48.5,34.8,30.14,South,185,0.0,0.0,59,0.00,,,0.00,457,Wunderground v.1.15,2013-03-23 16:37:00,
2013-03-23 09:42:00,49.0,33.1,30.14,South,185,0.0,0.0,54,0.00,,,0.00,476,Wunderground v.1.15,2013-03-23 16:42:00,
2013-03-23 09:47:00,49.5,32.1,30.14,South,185,0.0,0.0,51,0.00,,,0.00,492,Wunderground v.1.15,2013-03-23 16:47:00,
2013-03-23 09:57:00,50.4,32.4,30.14,WSW,245,0.0,0.0,50,0.00,,,0.00,522,Wunderground v.1.15,2013-03-23 16:57:00,
2013-03-23 10:02:00,51.0,34.9,30.14,SE,127,0.0,0.0,54,0.00,,,0.00,536,Wunderground v.1.15,2013-03-23 17:02:00,
2013-03-23 10:12:00,52.5,33.4,30.14,SE,132,0.0,0.0,48,0.00,,,0.00,568,Wunderground v.1.15,2013-03-23 17:12:00,
2013-03-23 10:17:00,52.2,30.9,30.14,SSE,157,0.0,0.0,44,0.00,,,0.00,580,Wunderground v.1.15,2013-03-23 17:17:00,
2013-03-23 10:27:00,53.6,32.2,30.14,SSW,201,0.0,0.0,44,0.00,,,0.00,608,Wunderground v.1.15,2013-03-23 17:27:00,
2013-03-23 10:32:00,53.9,33.6,30.15,SSW,207,0.0,1.0,46,0.00,,,0.00,619,Wunderground v.1.15,2013-03-23 17:32:00,
2013-03-23 10:42:00,54.0,35.3,30.14,SW,215,1.0,1.0,49,0.00,,,0.00,635,Wunderground v.1.15,2013-03-23 17:42:00,
2013-03-23 10:47:00,53.8,37.5,30.14,NW,321,0.0,1.0,54,0.00,,,0.00,643,Wunderground v.1.15,2013-03-23 17:47:00,
2013-03-23 10:52:00,54.3,37.0,30.14,WNW,288,0.0,0.0,52,0.00,,,0.00,668,Wunderground v.1.15,2013-03-23 17:52:00,
2013-03-23 10:57:00,54.6,38.3,30.14,NW,306,0.0,0.0,54,0.00,,,0.00,682,Wunderground v.1.15,2013-03-23 17:57:00,
2013-03-23 11:07:00,54.8,39.4,30.14,NW,308,0.0,0.0,56,0.00,,,0.00,696,Wunderground v.1.15,2013-03-23 18:07:00,
2013-03-23 11:12:00,55.0,39.1,30.14,WSW,240,0.0,1.0,55,0.00,,,0.00,710,Wunderground v.1.15,2013-03-23 18:12:00,
2013-03-23 11:22:00,53.8,38.9,30.14,SSW,196,1.0,1.0,57,0.00,,,0.00,729,Wunderground v.1.15,2013-03-23 18:22:00,
2013-03-23 11:27:00,54.4,39.5,30.14,SW,215,1.0,1.0,57,0.00,,,0.00,738,Wunderground v.1.15,2013-03-23 18:27:00,
2013-03-23 11:32:00,55.3,39.4,30.14,NNW,329,0.0,0.0,55,0.00,,,0.00,745,Wunderground v.1.15,2013-03-23 18:32:00,
2013-03-23 11:37:00,55.9,39.5,30.14,SE,138,0.0,1.0,54,0.00,,,0.00,758,Wunderground v.1.15,2013-03-23 18:37:00,
2013-03-23 11:47:00,56.4,39.5,30.14,East,88,0.0,0.0,53,0.00,,,0.00,770,Wunderground v.1.15,2013-03-23 18:47:00,
2013-03-23 11:52:00,56.0,40.1,30.13,SSE,163,0.0,0.0,55,0.00,,,0.00,780,Wunderground v.1.15,2013-03-23 18:52:00,
2013-03-23 12:02:00,57.4,41.8,30.13,SW,230,0.0,0.0,56,0.00,,,0.00,793,Wunderground v.1.15,2013-03-23 19:02:00,
2013-03-23 12:07:00,57.5,41.0,30.13,SW,231,0.0,1.0,54,0.00,,,0.00,795,Wunderground v.1.15,2013-03-23 19:07:00,
2013-03-23 12:12:00,56.7,39.3,30.13,WSW,246,1.0,1.0,52,0.00,,,0.00,803,Wunderground v.1.15,2013-03-23 19:12:00,
2013-03-23 12:22:00,57.7,41.6,30.13,SSW,205,0.0,1.0,55,0.00,,,0.00,816,Wunderground v.1.15,2013-03-23 19:22:00,
2013-03-23 12:27:00,58.7,41.1,30.13,SSE,158,0.0,1.0,52,0.00,,,0.00,821,Wunderground v.1.15,2013-03-23 19:27:00,
2013-03-23 12:32:00,58.2,39.6,30.13,WSW,246,1.0,1.0,50,0.00,,,0.00,826,Wunderground v.1.15,2013-03-23 19:32:00,
2013-03-23 12:37:00,56.6,38.7,30.13,SW,226,1.0,1.0,51,0.00,,,0.00,828,Wunderground v.1.15,2013-03-23 19:37:00,
2013-03-23 12:47:00,58.6,40.0,30.13,South,170,0.0,2.0,50,0.00,,,0.00,833,Wunderground v.1.15,2013-03-23 19:47:00,
2013-03-23 12:52:00,58.4,39.8,30.13,NW,313,1.0,1.0,50,0.00,,,0.00,835,Wunderground v.1.15,2013-03-23 19:52:00,
2013-03-23 12:57:00,58.7,38.5,30.12,South,173,1.0,1.0,47,0.00,,,0.00,844,Wunderground v.1.15,2013-03-23 19:57:00,
2013-03-23 13:02:00,58.5,38.9,30.13,NNW,340,1.0,1.0,48,0.00,,,0.00,847,Wunderground v.1.15,2013-03-23 20:02:00,
2013-03-23 13:12:00,59.1,37.8,30.12,ESE,117,0.0,0.0,45,0.00,,,0.00,844,Wunderground v.1.15,2013-03-23 20:12:00,
2013-03-23 13:17:00,59.7,39.4,30.12,WSW,257,0.0,1.0,47,0.00,,,0.00,830,Wunderground v.1.15,2013-03-23 20:17:00,
2013-03-23 13:27:00,59.0,38.2,30.12,SSW,207,1.0,1.0,46,0.00,,,0.00,784,Wunderground v.1.15,2013-03-23 20:27:00,
2013-03-23 13:32:00,58.7,35.7,30.12,SSW,200,1.0,2.0,42,0.00,,,0.00,780,Wunderground v.1.15,2013-03-23 20:32:00,
2013-03-23 13:37:00,58.6,37.9,30.12,WSW,250,0.0,2.0,46,0.00,,,0.00,830,Wunderground v.1.15,2013-03-23 20:37:00,
2013-03-23 13:42:00,59.8,37.2,30.12,West,259,0.0,1.0,43,0.00,,,0.00,798,Wunderground v.1.15,2013-03-23 20:42:00,
2013-03-23 13:52:00,58.9,32.7,30.11,SW,219,0.0,0.0,37,0.00,,,0.00,831,Wunderground v.1.15,2013-03-23 20:52:00,
2013-03-23 14:02:00,60.6,36.1,30.11,WNW,288,0.0,0.0,40,0.00,,,0.00,840,Wunderground v.1.15,2013-03-23 21:02:00,
2013-03-23 14:07:00,60.5,34.1,30.11,NNW,327,0.0,1.0,37,0.00,,,0.00,830,Wunderground v.1.15,2013-03-23 21:07:00,
2013-03-23 14:12:00,61.2,34.7,30.11,NNW,333,1.0,2.0,37,0.00,,,0.00,803,Wunderground v.1.15,2013-03-23 21:12:00,
2013-03-23 14:17:00,60.2,33.1,30.10,NW,326,1.0,3.0,36,0.00,,,0.00,793,Wunderground v.1.15,2013-03-23 21:17:00,
2013-03-23 14:22:00,61.1,34.6,30.10,North,10,1.0,1.0,37,0.00,,,0.00,842,Wunderground v.1.15,2013-03-23 21:22:00,
2013-03-23 14:32:00,61.5,34.3,30.10,NNW,334,1.0,1.0,36,0.00,,,0.00,735,Wunderground v.1.15,2013-03-23 21:32:00,
2013-03-23 14:42:00,62.1,35.5,30.10,NW,325,0.0,0.0,37,0.00,,,0.00,800,Wunderground v.1.15,2013-03-23 21:42:00,
2013-03-23 14:47:00,62.2,34.9,30.10,WNW,296,0.0,0.0,36,0.00,,,0.00,756,Wunderground v.1.15,2013-03-23 21:47:00,
2013-03-23 14:57:00,62.5,35.9,30.10,NW,323,0.0,1.0,37,0.00,,,0.00,693,Wunderground v.1.15,2013-03-23 21:57:00,
2013-03-23 15:02:00,62.3,34.3,30.10,SSE,155,0.0,0.0,35,0.00,,,0.00,707,Wunderground v.1.15,2013-03-23 22:02:00,
2013-03-23 15:07:00,62.4,34.4,30.09,NW,315,0.0,0.0,35,0.00,,,0.00,756,Wunderground v.1.15,2013-03-23 22:07:00,
2013-03-23 15:17:00,61.9,31.7,30.09,NW,315,0.0,0.0,32,0.00,,,0.00,733,Wunderground v.1.15,2013-03-23 22:17:00,
2013-03-23 15:27:00,62.7,32.4,30.09,WNW,303,0.0,0.0,32,0.00,,,0.00,701,Wunderground v.1.15,2013-03-23 22:27:00,
2013-03-23 15:37:00,62.9,32.6,30.08,SSE,154,0.0,0.0,32,0.00,,,0.00,680,Wunderground v.1.15,2013-03-23 22:37:00,
2013-03-23 15:42:00,63.6,32.4,30.08,SSW,195,0.0,0.0,31,0.00,,,0.00,668,Wunderground v.1.15,2013-03-23 22:42:00,
2013-03-23 15:47:00,62.5,31.4,30.08,WNW,283,0.0,0.0,31,0.00,,,0.00,647,Wunderground v.1.15,2013-03-23 22:47:00,
2013-03-23 15:57:00,63.2,32.8,30.08,NNW,330,0.0,0.0,32,0.00,,,0.00,582,Wunderground v.1.15,2013-03-23 22:57:00,
2013-03-23 16:02:00,63.0,32.7,30.08,SSW,207,0.0,0.0,32,0.00,,,0.00,524,Wunderground v.1.15,2013-03-23 23:02:00,
2013-03-23 16:07:00,62.9,32.6,30.08,WSW,251,0.0,0.0,32,0.00,,,0.00,559,Wunderground v.1.15,2013-03-23 23:07:00,
2013-03-23 16:12:00,62.9,31.0,30.08,SSW,207,0.0,0.0,30,0.00,,,0.00,504,Wunderground v.1.15,2013-03-23 23:12:00,
2013-03-23 16:17:00,63.2,30.4,30.07,SSW,207,0.0,0.0,29,0.00,,,0.00,476,Wunderground v.1.15,2013-03-23 23:17:00,
2013-03-23 16:27:00,63.5,33.9,30.08,SSE,149,0.0,0.0,33,0.00,,,0.00,547,Wunderground v.1.15,2013-03-23 23:27:00,
2013-03-23 16:37:00,63.9,35.0,30.07,WSW,246,0.0,0.0,34,0.00,,,0.00,506,Wunderground v.1.15,2013-03-23 23:37:00,
2013-03-23 16:42:00,64.1,33.6,30.07,WNW,297,0.0,0.0,32,0.00,,,0.00,496,Wunderground v.1.15,2013-03-23 23:42:00,
2013-03-23 16:47:00,63.3,32.1,30.07,North,5,0.0,0.0,31,0.00,,,0.00,468,Wunderground v.1.15,2013-03-23 23:47:00,
2013-03-23 16:52:00,63.5,33.1,30.07,North,5,0.0,0.0,32,0.00,,,0.00,466,Wunderground v.1.15,2013-03-23 23:52:00,
2013-03-23 16:57:00,63.0,30.2,30.08,NNW,329,0.0,0.0,29,0.00,,,0.00,459,Wunderground v.1.15,2013-03-23 23:57:00,
2013-03-23 17:07:00,63.1,32.7,30.08,NW,317,0.0,1.0,32,0.00,,,0.00,417,Wunderground v.1.15,2013-03-24 00:07:00,
2013-03-23 17:12:00,62.9,32.6,30.08,WSW,257,0.0,0.0,32,0.00,,,0.00,403,Wunderground v.1.15,2013-03-24 00:12:00,
2013-03-23 17:22:00,62.2,32.7,30.08,NNW,337,0.0,0.0,33,0.00,,,0.00,366,Wunderground v.1.15,2013-03-24 00:22:00,
2013-03-23 17:27:00,62.3,32.0,30.08,SW,232,0.0,0.0,32,0.00,,,0.00,346,Wunderground v.1.15,2013-03-24 00:27:00,
2013-03-23 17:37:00,61.4,29.7,30.07,SSE,160,0.0,0.0,30,0.00,,,0.00,316,Wunderground v.1.15,2013-03-24 00:37:00,
2013-03-23 17:42:00,61.2,30.3,30.08,SSE,160,0.0,0.0,31,0.00,,,0.00,287,Wunderground v.1.15,2013-03-24 00:42:00,
2013-03-23 17:47:00,60.4,28.0,30.08,SSE,160,0.0,0.0,29,0.00,,,0.00,274,Wunderground v.1.15,2013-03-24 00:47:00,
2013-03-23 17:52:00,60.0,28.4,30.07,SSE,161,0.0,0.0,30,0.00,,,0.00,86,Wunderground v.1.15,2013-03-24 00:52:00,
2013-03-23 17:57:00,59.7,27.4,30.07,ENE,65,0.0,0.0,29,0.00,,,0.00,42,Wunderground v.1.15,2013-03-24 00:57:00,
2013-03-23 18:07:00,59.2,30.1,30.07,ENE,66,0.0,0.0,33,0.00,,,0.00,30,Wunderground v.1.15,2013-03-24 01:07:00,
2013-03-23 18:12:00,58.5,33.0,30.07,ENE,65,0.0,0.0,38,0.00,,,0.00,28,Wunderground v.1.15,2013-03-24 01:12:00,
2013-03-23 18:17:00,58.0,34.4,30.08,ENE,65,0.0,0.0,41,0.00,,,0.00,26,Wunderground v.1.15,2013-03-24 01:17:00,
2013-03-23 18:22:00,57.2,34.9,30.08,ESE,110,0.0,0.0,43,0.00,,,0.00,25,Wunderground v.1.15,2013-03-24 01:22:00,
2013-03-23 18:27:00,57.0,34.1,30.07,ESE,110,0.0,0.0,42,0.00,,,0.00,23,Wunderground v.1.15,2013-03-24 01:27:00,
2013-03-23 18:37:00,55.8,33.0,30.07,ESE,110,0.0,0.0,42,0.00,,,0.00,21,Wunderground v.1.15,2013-03-24 01:37:00,
2013-03-23 18:42:00,55.5,32.8,30.07,ESE,107,0.0,0.0,42,0.00,,,0.00,19,Wunderground v.1.15,2013-03-24 01:42:00,
2013-03-23 18:52:00,54.8,33.3,30.08,ESE,107,0.0,0.0,44,0.00,,,0.00,14,Wunderground v.1.15,2013-03-24 01:52:00,
2013-03-23 18:57:00,54.0,32.6,30.08,ESE,107,0.0,0.0,44,0.00,,,0.00,12,Wunderground v.1.15,2013-03-24 01:57:00,
2013-03-23 19:07:00,52.7,33.0,30.08,ESE,107,0.0,0.0,47,0.00,,,0.00,9,Wunderground v.1.15,2013-03-24 02:07:00,
2013-03-23 19:12:00,51.5,34.0,30.08,ESE,107,0.0,0.0,51,0.00,,,0.00,7,Wunderground v.1.15,2013-03-24 02:12:00,
2013-03-23 19:17:00,50.6,33.6,30.08,ESE,107,0.0,0.0,52,0.00,,,0.00,5,Wunderground v.1.15,2013-03-24 02:17:00,
2013-03-23 19:22:00,50.2,33.7,30.08,ESE,107,0.0,0.0,53,0.00,,,0.00,0,Wunderground v.1.15,2013-03-24 02:22:00,
2013-03-23 19:27:00,49.5,34.0,30.08,ESE,107,0.0,0.0,55,0.00,,,0.00,0,Wunderground v.1.15,2013-03-24 02:27:00,
2013-03-23 19:32:00,48.8,33.3,30.08,ESE,107,0.0,0.0,55,0.00,,,0.00,0,Wunderground v.1.15,2013-03-24 02:32:00,
2013-03-23 19:42:00,47.8,33.3,30.08,ESE,107,0.0,0.0,57,0.00,,,0.00,0,Wunderground v.1.15,2013-03-24 02:42:00,
2013-03-23 19:47:00,47.1,33.9,30.08,ESE,107,0.0,0.0,60,0.00,,,0.00,0,Wunderground v.1.15,2013-03-24 02:47:00,
2013-03-23 19:52:00,46.7,33.1,30.08,ESE,107,0.0,0.0,59,0.00,,,0.00,0,Wunderground v.1.15,2013-03-24 02:52:00,
2013-03-23 19:57:00,46.2,32.7,30.08,ESE,107,0.0,0.0,59,0.00,,,0.00,0,Wunderground v.1.15,2013-03-24 02:57:00,
2013-03-23 20:07:00,45.6,32.9,30.08,ESE,107,0.0,0.0,61,0.00,,,0.00,0,Wunderground v.1.15,2013-03-24 03:07:00,
2013-03-23 20:12:00,45.4,32.7,30.08,ESE,107,0.0,0.0,61,0.00,,,0.00,0,Wunderground v.1.15,2013-03-24 03:12:00,
2013-03-23 20:17:00,45.3,32.6,30.08,ESE,107,0.0,0.0,61,0.00,,,0.00,0,Wunderground v.1.15,2013-03-24 03:17:00,
2013-03-23 20:22:00,45.0,32.8,30.08,ESE,107,0.0,0.0,62,0.00,,,0.00,0,Wunderground v.1.15,2013-03-24 03:22:00,
2013-03-23 20:27:00,44.8,32.6,30.09,ESE,107,0.0,0.0,62,0.00,,,0.00,0,Wunderground v.1.15,2013-03-24 03:27:00,
2013-03-23 20:37:00,44.2,32.4,30.09,ESE,107,0.0,0.0,63,0.00,,,0.00,0,Wunderground v.1.15,2013-03-24 03:37:00,
2013-03-23 20:42:00,44.1,31.9,30.09,ESE,107,0.0,0.0,62,0.00,,,0.00,0,Wunderground v.1.15,2013-03-24 03:42:00,
2013-03-23 20:52:00,44.1,31.9,30.10,ESE,107,0.0,0.0,62,0.00,,,0.00,0,Wunderground v.1.15,2013-03-24 03:52:00,
2013-03-23 20:57:00,43.8,31.6,30.10,ESE,107,0.0,0.0,62,0.00,,,0.00,0,Wunderground v.1.15,2013-03-24 03:57:00,
2013-03-23 21:02:00,43.9,30.9,30.10,ESE,107,0.0,0.0,60,0.00,,,0.00,0,Wunderground v.1.15,2013-03-24 04:02:00,
2013-03-23 21:07:00,44.0,30.6,30.10,ESE,107,0.0,0.0,59,0.00,,,0.00,0,Wunderground v.1.15,2013-03-24 04:07:00,
2013-03-23 21:12:00,44.0,30.6,30.10,ESE,107,0.0,0.0,59,0.00,,,0.00,0,Wunderground v.1.15,2013-03-24 04:12:00,
2013-03-23 21:17:00,43.9,30.9,30.10,ESE,107,0.0,0.0,60,0.00,,,0.00,0,Wunderground v.1.15,2013-03-24 04:17:00,
2013-03-23 21:22:00,43.8,30.8,30.10,ESE,107,0.0,0.0,60,0.00,,,0.00,0,Wunderground v.1.15,2013-03-24 04:22:00,
2013-03-23 21:32:00,44.2,30.8,30.11,ESE,107,0.0,0.0,59,0.00,,,0.00,0,Wunderground v.1.15,2013-03-24 04:32:00,
2013-03-23 21:37:00,44.0,32.2,30.11,ESE,107,0.0,0.0,63,0.00,,,0.00,0,Wunderground v.1.15,2013-03-24 04:37:00,
2013-03-23 21:42:00,44.2,32.0,30.11,ESE,107,0.0,0.0,62,0.00,,,0.00,0,Wunderground v.1.15,2013-03-24 04:42:00,
2013-03-23 21:47:00,44.2,31.2,30.11,ESE,107,0.0,0.0,60,0.00,,,0.00,0,Wunderground v.1.15,2013-03-24 04:47:00,
2013-03-23 21:52:00,44.4,31.0,30.11,ESE,107,0.0,0.0,59,0.00,,,0.00,0,Wunderground v.1.15,2013-03-24 04:52:00,
2013-03-23 22:02:00,44.3,31.7,30.11,ESE,107,0.0,0.0,61,0.00,,,0.00,0,Wunderground v.1.15,2013-03-24 05:02:00,
2013-03-23 22:07:00,44.5,31.5,30.11,ESE,107,0.0,0.0,60,0.00,,,0.00,0,Wunderground v.1.15,2013-03-24 05:07:00,
2013-03-23 22:12:00,44.7,31.7,30.11,ESE,107,0.0,0.0,60,0.00,,,0.00,0,Wunderground v.1.15,2013-03-24 05:12:00,
2013-03-23 22:22:00,43.9,32.9,30.11,ESE,107,0.0,0.0,65,0.00,,,0.00,0,Wunderground v.1.15,2013-03-24 05:22:00,
2013-03-23 22:32:00,43.3,33.1,30.11,ESE,107,0.0,0.0,67,0.00,,,0.00,0,Wunderground v.1.15,2013-03-24 05:32:00,
2013-03-23 22:47:00,43.5,32.5,30.11,ESE,107,0.0,0.0,65,0.00,,,0.00,0,Wunderground v.1.15,2013-03-24 05:47:00,
2013-03-23 22:52:00,44.1,32.7,30.11,ESE,107,0.0,0.0,64,0.00,,,0.00,0,Wunderground v.1.15,2013-03-24 05:52:00,
2013-03-23 22:57:00,45.4,32.7,30.11,ESE,107,0.0,0.0,61,0.00,,,0.00,0,Wunderground v.1.15,2013-03-24 05:57:00,
2013-03-23 23:02:00,45.5,32.8,30.11,ESE,107,0.0,0.0,61,0.00,,,0.00,0,Wunderground v.1.15,2013-03-24 06:02:00,
2013-03-23 23:07:00,45.3,33.0,30.11,ESE,107,0.0,0.0,62,0.00,,,0.00,0,Wunderground v.1.15,2013-03-24 06:07:00,
2013-03-23 23:17:00,44.8,32.2,30.11,ESE,107,0.0,0.0,61,0.00,,,0.00,0,Wunderground v.1.15,2013-03-24 06:17:00,
2013-03-23 23:22:00,44.5,32.3,30.10,ESE,107,0.0,0.0,62,0.00,,,0.00,0,Wunderground v.1.15,2013-03-24 06:22:00,
2013-03-23 23:37:00,45.9,33.6,30.11,ESE,111,0.0,0.0,62,0.00,,,0.00,0,Wunderground v.1.15,2013-03-24 06:37:00,
2013-03-23 23:42:00,45.8,33.1,30.10,ESE,111,0.0,0.0,61,0.00,,,0.00,0,Wunderground v.1.15,2013-03-24 06:42:00,
2013-03-23 23:47:00,46.2,33.5,30.10,ESE,111,0.0,0.0,61,0.00,,,0.00,0,Wunderground v.1.15,2013-03-24 06:47:00,
2013-03-23 23:57:00,45.4,33.1,30.10,ESE,111,0.0,0.0,62,0.00,,,0.00,0,Wunderground v.1.15,2013-03-24 06:57:00,